• In Uzbekistan
  • List of Countries
  • For 7 days
  • Water Temperature
  • Satellite Maps
  • Weather Map
  • Weather Widgets
  • user-avatar
    Login

    Hourly Weather Tskhinvali

    Today, 23 October, Monday

    Time Temperature Precipitation Wind Pressure Humidity
    00:00 +7°C° 0 mm 2 mps 679 mmHg 82%
    01:00 +7°C° 0 mm 2 mps 679 mmHg 83%
    02:00 +7°C° 0 mm 2 mps 680 mmHg 83%
    03:00 +7°C° 0 mm 3 mps 680 mmHg 81%
    04:00 +7°C° 0 mm 2 mps 680 mmHg 82%
    05:00 +7°C° 0 mm 2 mps 680 mmHg 83%
    06:00 +7°C° 0 mm 2 mps 681 mmHg 84%
    07:00 +8°C° 0 mm 2 mps 681 mmHg 80%
    08:00 +9°C° 0 mm 2 mps 681 mmHg 76%
    09:00 +12°C° 0 mm 2 mps 682 mmHg 71%
    10:00 +13°C° 0 mm 2 mps 682 mmHg 67%
    11:00 +13°C° 0 mm 3 mps 682 mmHg 64%
    12:00 +14°C° 0 mm 3 mps 682 mmHg 61%
    13:00 +14°C° 0 mm 3 mps 682 mmHg 58%
    14:00 +14°C° 0 mm 3 mps 682 mmHg 56%
    15:00 +14°C° 0 mm 3 mps 682 mmHg 54%
    16:00 +14°C° 0 mm 2 mps 682 mmHg 59%
    17:00 +12°C° 0 mm 2 mps 682 mmHg 64%
    18:00 +10°C° 0 mm 1 mps 682 mmHg 69%
    19:00 +10°C° 0 mm 1 mps 682 mmHg 68%
    20:00 +9°C° 0 mm 2 mps 682 mmHg 67%
    21:00 +8°C° 0 mm 2 mps 683 mmHg 66%
    22:00 +8°C° 0 mm 2 mps 683 mmHg 68%
    23:00 +8°C° 0 mm 3 mps 683 mmHg 71%

    Tomorrow, 24 October, Tuesday

    Time Temperature Precipitation Wind Pressure Humidity
    00:00 +8°C° 0 mm 3 mps 683 mmHg 73%
    01:00 +8°C° 0 mm 3 mps 683 mmHg 73%
    02:00 +8°C° 0 mm 2 mps 683 mmHg 74%
    03:00 +7°C° 0 mm 2 mps 683 mmHg 74%
    04:00 +7°C° 0 mm 2 mps 683 mmHg 74%
    05:00 +7°C° 0 mm 2 mps 683 mmHg 74%
    06:00 +7°C° 0 mm 2 mps 682 mmHg 74%
    07:00 +9°C° 0 mm 2 mps 683 mmHg 70%
    08:00 +10°C° 0 mm 3 mps 683 mmHg 66%
    09:00 +11°C° 0 mm 3 mps 683 mmHg 63%
    10:00 +12°C° 0 mm 3 mps 683 mmHg 59%
    11:00 +14°C° 0 mm 3 mps 683 mmHg 55%
    12:00 +16°C° 0 mm 3 mps 683 mmHg 52%
    13:00 +16°C° 0 mm 3 mps 683 mmHg 51%
    14:00 +16°C° 0 mm 3 mps 683 mmHg 50%
    15:00 +17°C° 0 mm 3 mps 682 mmHg 49%
    16:00 +15°C° 0 mm 2 mps 682 mmHg 54%
    17:00 +13°C° 0 mm 2 mps 682 mmHg 59%
    18:00 +11°C° 0 mm 1 mps 682 mmHg 64%
    19:00 +11°C° 0 mm 1 mps 683 mmHg 61%
    20:00 +11°C° 0 mm 1 mps 683 mmHg 59%
    21:00 +11°C° 0 mm 1 mps 683 mmHg 56%
    22:00 +9°C° 0 mm 2 mps 683 mmHg 56%
    23:00 +9°C° 0 mm 2 mps 683 mmHg 56%

    Day after tomorrow, 25 October, Wednesday

    Time Temperature Precipitation Wind Pressure Humidity
    00:00 +9°C° 0 mm 2 mps 683 mmHg 56%
    01:00 +9°C° 0 mm 2 mps 683 mmHg 56%
    02:00 +9°C° 0 mm 2 mps 683 mmHg 57%
    03:00 +9°C° 0 mm 2 mps 683 mmHg 57%
    04:00 +10°C° 0 mm 1 mps 683 mmHg 58%
    05:00 +10°C° 0 mm 1 mps 683 mmHg 58%
    06:00 +10°C° 0 mm 1 mps 683 mmHg 59%
    07:00 +12°C° 0 mm 2 mps 684 mmHg 55%
    08:00 +14°C° 0 mm 2 mps 684 mmHg 51%
    09:00 +16°C° 0 mm 2 mps 685 mmHg 47%
    10:00 +17°C° 0 mm 2 mps 685 mmHg 44%
    11:00 +18°C° 0 mm 3 mps 684 mmHg 40%
    12:00 +20°C° 0 mm 3 mps 684 mmHg 37%
    13:00 +20°C° 0 mm 3 mps 684 mmHg 37%
    14:00 +20°C° 0 mm 3 mps 684 mmHg 37%
    15:00 +20°C° 0 mm 3 mps 684 mmHg 37%
    16:00 +18°C° 0 mm 2 mps 684 mmHg 41%
    17:00 +16°C° 0 mm 2 mps 683 mmHg 45%
    18:00 +14°C° 0 mm 1 mps 683 mmHg 50%
    19:00 +13°C° 0 mm 1 mps 683 mmHg 51%
    20:00 +13°C° 0 mm 1 mps 683 mmHg 52%
    21:00 +12°C° 0 mm 1 mps 683 mmHg 54%
    22:00 +12°C° 0 mm 1 mps 683 mmHg 55%
    23:00 +12°C° 0 mm 1 mps 683 mmHg 56%

    26 October, Thursday

    Time Temperature Precipitation Wind Pressure Humidity
    00:00 +12°C° 0 mm 1 mps 683 mmHg 57%
    01:00 +11°C° 0 mm 1 mps 683 mmHg 57%
    02:00 +11°C° 0 mm 1 mps 683 mmHg 57%
    03:00 +11°C° 0 mm 1 mps 683 mmHg 57%
    04:00 +11°C° 0 mm 1 mps 683 mmHg 57%
    05:00 +11°C° 0 mm 1 mps 683 mmHg 57%
    06:00 +10°C° 0 mm 1 mps 683 mmHg 57%
    07:00 +12°C° 0 mm 1 mps 683 mmHg 53%
    08:00 +14°C° 0 mm 1 mps 684 mmHg 48%
    09:00 +16°C° 0 mm 1 mps 684 mmHg 44%
    10:00 +17°C° 0 mm 2 mps 684 mmHg 42%
    11:00 +18°C° 0 mm 3 mps 684 mmHg 41%
    12:00 +19°C° 0 mm 3 mps 684 mmHg 39%
    13:00 +19°C° 0 mm 4 mps 684 mmHg 42%
    14:00 +18°C° 0 mm 4 mps 684 mmHg 45%
    15:00 +18°C° 0 mm 4 mps 684 mmHg 47%
    16:00 +15°C° 0 mm 4 mps 683 mmHg 58%
    17:00 +13°C° 0 mm 3 mps 683 mmHg 69%
    18:00 +12°C° 0 mm 2 mps 683 mmHg 80%
    19:00 +12°C° 0 mm 2 mps 683 mmHg 83%
    20:00 +12°C° 0 mm 2 mps 683 mmHg 86%
    21:00 +12°C° 0 mm 2 mps 684 mmHg 88%
    22:00 +12°C° 0.2 mm 2 mps 684 mmHg 89%
    23:00 +10°C° 0.2 mm 2 mps 684 mmHg 90%

    27 October, Friday

    Time Temperature Precipitation Wind Pressure Humidity
    00:00 +10°C° 0.2 mm 3 mps 683 mmHg 91%
    01:00 +10°C° 0.3 mm 2 mps 683 mmHg 92%
    02:00 +10°C° 0.3 mm 2 mps 683 mmHg 92%
    03:00 +10°C° 0.3 mm 2 mps 683 mmHg 92%
    04:00 +10°C° 0.5 mm 2 mps 683 mmHg 92%
    05:00 +10°C° 0.5 mm 2 mps 684 mmHg 92%
    06:00 +10°C° 0.5 mm 2 mps 684 mmHg 92%
    07:00 +10°C° 0.6 mm 2 mps 684 mmHg 91%
    08:00 +10°C° 0.6 mm 2 mps 684 mmHg 91%
    09:00 +10°C° 0.6 mm 3 mps 684 mmHg 90%
    10:00 +11°C° 0.3 mm 3 mps 684 mmHg 87%
    11:00 +11°C° 0.3 mm 3 mps 684 mmHg 83%
    12:00 +12°C° 0.3 mm 4 mps 683 mmHg 80%
    13:00 +12°C° 0.2 mm 4 mps 683 mmHg 79%
    14:00 +12°C° 0.2 mm 4 mps 683 mmHg 79%
    15:00 +11°C° 0.2 mm 3 mps 683 mmHg 79%
    16:00 +11°C° 0 mm 3 mps 683 mmHg 82%
    17:00 +10°C° 0 mm 2 mps 683 mmHg 85%
    18:00 +9°C° 0 mm 2 mps 683 mmHg 88%
    19:00 +9°C° 0 mm 1 mps 683 mmHg 87%
    20:00 +9°C° 0 mm 1 mps 682 mmHg 87%
    21:00 +8°C° 0 mm 1 mps 682 mmHg 86%
    22:00 +8°C° 0 mm 1 mps 682 mmHg 84%
    23:00 +8°C° 0 mm 1 mps 682 mmHg 81%

    28 October, Saturday

    Time Temperature Precipitation Wind Pressure Humidity
    00:00 +8°C° 0 mm 1 mps 682 mmHg 79%
    01:00 +7°C° 0 mm 2 mps 681 mmHg 78%
    02:00 +7°C° 0 mm 2 mps 681 mmHg 78%
    03:00 +7°C° 0 mm 2 mps 681 mmHg 77%
    04:00 +7°C° 0 mm 2 mps 681 mmHg 78%
    05:00 +7°C° 0 mm 2 mps 681 mmHg 79%
    06:00 +7°C° 0 mm 2 mps 680 mmHg 80%
    07:00 +8°C° 0 mm 2 mps 680 mmHg 76%
    08:00 +9°C° 0 mm 2 mps 680 mmHg 71%
    09:00 +11°C° 0 mm 3 mps 680 mmHg 66%
    10:00 +12°C° 0 mm 3 mps 680 mmHg 61%
    11:00 +14°C° 0 mm 3 mps 680 mmHg 55%
    12:00 +16°C° 0 mm 3 mps 679 mmHg 49%
    13:00 +16°C° 0 mm 3 mps 679 mmHg 48%
    14:00 +16°C° 0 mm 3 mps 679 mmHg 47%
    15:00 +16°C° 0 mm 3 mps 679 mmHg 46%
    16:00 +15°C° 0 mm 2 mps 678 mmHg 51%
    17:00 +13°C° 0 mm 2 mps 678 mmHg 56%
    18:00 +11°C° 0 mm 1 mps 678 mmHg 60%
    19:00 +11°C° 0 mm 1 mps 678 mmHg 62%
    20:00 +11°C° 0 mm 1 mps 678 mmHg 63%
    21:00 +11°C° 0 mm 1 mps 678 mmHg 64%
    22:00 +11°C° 0 mm 1 mps 678 mmHg 66%
    23:00 +11°C° 0 mm 1 mps 678 mmHg 67%

    29 October, Sunday

    Time Temperature Precipitation Wind Pressure Humidity
    00:00 +10°C° 0 mm 1 mps 677 mmHg 68%
    01:00 +10°C° 0.1 mm 1 mps 677 mmHg 70%
    02:00 +10°C° 0.1 mm 1 mps 677 mmHg 71%
    03:00 +10°C° 0.1 mm 1 mps 677 mmHg 72%
    04:00 +10°C° 0.2 mm 1 mps 678 mmHg 75%
    05:00 +10°C° 0.2 mm 1 mps 678 mmHg 77%
    06:00 +9°C° 0.2 mm 1 mps 678 mmHg 79%
    07:00 +11°C° 0 mm 1 mps 678 mmHg 73%
    08:00 +12°C° 0 mm 2 mps 679 mmHg 67%
    09:00 +13°C° 0 mm 2 mps 680 mmHg 61%
    10:00 +15°C° 0 mm 2 mps 679 mmHg 57%
    11:00 +16°C° 0 mm 2 mps 679 mmHg 53%
    12:00 +17°C° 0 mm 3 mps 679 mmHg 49%
    13:00 +17°C° 0 mm 3 mps 679 mmHg 48%
    14:00 +17°C° 0 mm 3 mps 679 mmHg 47%
    15:00 +17°C° 0 mm 2 mps 679 mmHg 45%
    16:00 +16°C° 0 mm 2 mps 678 mmHg 50%
    17:00 +14°C° 0 mm 2 mps 678 mmHg 55%
    18:00 +12°C° 0 mm 1 mps 678 mmHg 60%
    19:00 +12°C° 0 mm 1 mps 678 mmHg 60%
    20:00 +12°C° 0 mm 2 mps 678 mmHg 59%
    21:00 +12°C° 0 mm 2 mps 678 mmHg 59%
    22:00 +10°C° 0 mm 2 mps 678 mmHg 63%
    23:00 +10°C° 0 mm 2 mps 677 mmHg 67%
    Show more